Wind_Speed
43 45 44 46 46 42 32 30 23 25 19 20 13 9 13 14 13 11 12 13 16 16 15 14 14 13 13 14 15 17 18 17 15 17 14 15 17 16 17 15 15 16 14
44 44 44 39 40 38 36 30 29 26 20 20 16 16 17 15 12 12 10 8 10 13 12 13 13 14 15 14 14 14 13 13 14 15 14 18 21 20 17 14 17 15 14
34 35 33 31 34 36 39 36 31 27 23 20 16 16 14 16 12 12 12 10 8 8 10 12 11 13 13 13 14 16 17 16 16 16 17 19 21 21 19 17 17 17 15
24 28 35 36 38 36 36 34 31 27 25 22 19 19 18 17 15 11 11 10 8 9 10 10 10 11 12 13 15 16 16 16 16 18 17 20 20 20 19 20 20 19 16
20 25 30 29 29 35 38 37 30 25 25 20 21 20 18 17 16 17 14 12 12 11 9 9 9 8 9 9 11 12 14 16 18 16 16 20 21 20 22 22 21 21 18
3 10 10 3 12 38 41 31 25 24 23 23 22 21 20 16 14 18 12 13 12 13 9 8 9 9 9 12 16 17 16 14 17 16 15 20 20 20 22 21 21 23 21
12 9 13 23 41 40 13 14 14 23 22 24 21 20 18 17 18 18 19 18 15 12 11 11 12 12 13 14 12 12 18 22 22 22 21 22 19 18 14 15 20 23 25
11 21 13 7 13 18 23 15 21 24 24 24 22 20 20 18 17 18 19 19 18 20 18 14 13 13 15 11 15 18 16 18 20 25 27 26 22 21 19 17 15 18 22
9 8 5 2 21 29 33 24 25 28 24 21 21 20 19 16 17 15 15 17 15 16 19 22 21 21 20 21 20 20 21 19 16 15 16 21 20 22 20 18 16 20 25
4 3 9 12 13 16 32 25 23 22 19 20 22 24 24 20 19 18 16 16 16 13 13 14 16 17 21 21 21 24 26 23 20 22 20 19 21 23 24 23 20 22 27
11 9 5 3 9 17 15 16 18 17 16 17 20 24 19 18 18 18 17 18 18 16 17 16 20 17 16 18 19 25 27 23 24 26 25 22 22 22 26 25 24 22 25
12 15 15 13 12 12 8 9 12 16 17 27 48 25 10 8 9 10 11 15 17 22 24 23 23 25 23 22 21 24 29 27 25 26 24 24 25 24 22 23 24 24 24
12 13 13 14 14 14 12 10 12 6 10 13 9 10 2 4 6 11 13 17 19 22 24 23 24 24 24 28 29 29 29 30 35 33 34 30 29 26 21 20 20 21 27
12 10 10 13 14 14 16 18 15 10 7 3 2 9 11 12 9 14 16 21 22 22 26 24 30 28 29 27 31 37 39 38 40 43 39 35 29 27 26 25 26 24 24
9 11 15 13 13 14 15 17 16 15 13 10 8 7 5 6 9 12 14 18 22 24 30 27 25 24 22 25 26 26 28 33 41 43 42 36 31 29 28 27 29 30 30
8 9 9 10 11 12 11 12 10 12 10 12 10 9 13 14 14 15 16 20 19 19 22 24 28 26 25 23 24 21 19 21 28 35 34 33 28 26 30 31 29 34 38
11 10 9 9 6 9 11 12 12 14 9 5 8 12 15 15 17 18 21 20 15 13 15 16 20 21 19 15 16 16 17 15 16 23 27 27 31 26 25 24 25 34 42
10 10 11 9 11 9 10 11 13 12 18 6 12 10 13 16 17 18 21 18 11 8 9 8 12 11 13 13 14 14 13 15 16 20 24 25 24 24 27 24 23 26 27
12 11 9 11 14 12 8 8 10 12 12 12 7 9 12 14 14 15 18 14 12 7 8 6 7 11 13 14 15 14 13 15 15 18 20 23 22 20 22 20 20 22 15
11 11 10 11 10 10 9 10 13 11 10 10 7 5 10 8 6 13 10 15 13 11 9 7 8 11 12 13 13 14 11 13 13 14 14 14 16 18 15 12 12 13 9
11 10 15 10 11 11 11 8 9 12 15 8 3 6 9 7 7 9 9 11 12 13 14 14 12 12 9 5 5 7 9 11 11 11 11 11 9 7 8 14 17 13 11
4 9 12 13 12 11 13 9 10 10 8 5 3 5 11 4 2 3 5 8 11 12 13 15 16 14 17 19 17 16 16 16 14 15 15 15 16 14 16 12 10 12 14
7 8 7 13 10 11 10 11 10 9 7 4 3 3 2 2 5 7 8 9 9 12 12 13 13 13 15 15 14 13 11 11 13 13 10 13 13 11 11 10 10 8 7
4 5 8 12 8 9 10 9 11 11 10 6 6 3 5 5 1 1 2 3 5 5 5 5 5 6 9 10 6 5 6 7 8 7 6 5 4 7 5 7 7 8 9
8 6 5 5 8 6 6 7 7 7 7 7 7 6 8 5 4 3 3 1 2 5 4 3 1 3 5 3 1 1 2 7 9 9 7 4 7 8 8 8 9 7 8
6 6 8 8 8 6 7 7 5 5 6 8 8 9 10 9 7 6 5 3 2 4 5 2 1 3 4 2 4 4 6 8 7 9 10 6 6 7 6 8 7 8 6
Wind_Direction
220 214 215 216 214 210 208 218 208 215 206 208 209 199 217 239 250 238 238 244 248 251 251 245 243 244 251 245 238 252 264 260 268 267 263 252 257 254 273 255 267 271 270
218 210 212 214 211 213 205 211 211 222 212 208 203 205 206 223 239 253 252 235 235 239 242 235 229 231 236 230 235 239 245 250 256 255 253 258 264 265 260 264 263 267 269
203 206 209 207 211 213 204 206 212 212 213 212 207 205 212 206 228 226 234 232 213 215 230 237 233 233 237 230 230 233 242 248 246 258 257 249 249 252 253 272 277 267 262
206 222 213 208 213 206 197 202 207 203 204 205 205 211 202 205 213 231 215 224 215 216 224 233 227 221 229 236 236 247 245 244 245 249 245 251 252 256 260 260 262 265 260
219 218 219 220 221 209 196 200 208 204 194 200 203 212 205 202 205 209 212 217 225 227 227 231 231 226 222 228 238 244 240 245 248 250 247 249 255 251 256 267 267 261 253
263 198 153 78 5 338 188 202 194 198 194 203 208 215 206 196 210 224 217 188 233 237 222 210 214 235 237 249 256 257 254 254 250 246 247 251 266 266 262 258 257 248 237
357 284 304 325 330 329 30 183 206 208 200 208 213 209 215 203 210 219 231 210 200 232 243 219 217 241 261 259 256 255 253 254 254 253 251 263 274 282 280 266 245 246 241
338 15 29 353 354 283 296 283 247 233 216 217 214 218 212 215 223 228 237 235 217 210 218 236 245 228 231 232 254 259 262 259 259 254 256 259 262 265 273 279 269 251 238
358 328 359 350 205 237 248 266 241 242 229 219 223 220 225 220 234 245 247 249 237 231 229 229 227 233 240 241 237 246 261 268 272 263 258 255 247 250 259 264 252 229 227
48 260 226 234 234 255 244 237 243 247 237 226 225 225 224 219 227 237 247 256 256 256 258 264 265 259 243 241 245 250 256 259 250 254 266 261 250 251 262 260 256 234 230
55 49 29 344 262 260 276 265 250 235 227 233 252 238 230 231 239 242 245 252 252 247 249 250 269 270 271 265 258 255 264 271 253 254 266 255 253 256 251 255 255 238 237
75 61 57 53 52 47 14 295 287 253 258 262 302 227 214 235 238 259 266 264 269 268 264 255 255 252 254 261 258 261 267 270 268 249 252 255 256 258 257 248 247 239 239
65 69 67 43 32 34 33 41 45 36 233 182 274 350 320 210 212 231 250 264 266 262 262 265 260 260 259 256 260 260 257 254 259 254 248 240 250 256 257 261 261 253 236
23 23 19 18 24 32 34 32 30 35 83 94 213 241 256 276 261 262 268 271 269 267 265 266 266 263 267 268 266 265 256 254 248 249 251 244 238 242 247 244 249 251 240
8 3 0 6 3 13 8 30 32 38 38 34 24 360 336 310 333 329 313 299 281 268 266 263 266 269 262 276 287 282 273 264 251 241 238 244 241 246 240 239 241 245 244
9 359 355 355 338 345 3 360 347 339 4 8 17 14 2 359 347 344 333 325 307 278 272 261 254 264 280 282 286 292 281 286 273 248 232 227 236 244 244 252 247 240 242
338 334 326 337 315 311 332 326 321 324 302 324 342 339 346 352 346 346 347 346 332 305 292 279 270 279 286 285 299 293 292 291 277 255 230 226 236 251 256 260 263 250 242
323 316 315 314 313 311 319 318 299 295 317 292 331 337 332 349 351 340 343 345 336 301 308 295 274 263 274 289 297 297 281 270 252 239 234 237 245 257 261 259 269 267 269
326 317 322 307 297 301 292 312 312 303 304 308 285 341 334 336 334 322 336 2 355 324 285 315 311 300 289 287 275 278 271 260 263 256 251 247 249 258 260 264 269 279 258
318 315 314 322 313 309 305 292 291 302 306 303 258 284 282 308 309 302 341 357 13 21 2 344 328 308 294 289 286 276 268 276 270 258 250 243 252 255 255 253 245 225 176
322 320 324 298 320 332 329 316 303 299 296 245 239 305 324 328 311 330 356 7 28 50 47 36 29 31 29 12 298 267 256 253 253 249 250 240 221 186 162 151 135 125 130
334 322 332 339 327 331 325 334 323 341 14 34 328 341 333 344 47 76 47 54 58 62 60 57 46 57 67 74 74 80 85 85 90 107 104 106 110 128 142 149 149 142 137
311 313 337 332 334 326 355 327 332 318 337 337 337 24 124 290 72 79 79 78 83 75 65 59 61 67 71 71 72 74 76 89 99 94 96 122 108 123 133 142 140 137 148
329 8 343 336 340 324 317 301 314 319 315 304 296 233 210 256 250 68 67 86 101 61 49 55 68 59 72 83 87 93 99 109 92 93 109 125 152 140 132 152 145 143 155
293 295 317 311 311 305 320 317 297 290 281 259 234 213 216 246 198 255 294 319 311 323 324 325 38 109 145 181 170 91 163 136 114 114 116 136 116 141 160 129 141 149 168
319 327 313 275 269 267 317 318 304 303 275 259 245 237 227 217 227 219 228 258 282 310 321 307 348 13 305 290 233 214 200 188 170 152 140 165 171 150 155 174 152 162 182
Height
1432 1438 1445 1449 1456 1463 1469 1472 1477 1479 1481 1482 1484 1487 1489 1491 1493 1493 1493 1495 1497 1498 1501 1502 1503 1503 1505 1505 1506 1507 1512 1515 1516 1520 1524 1525 1526 1527 1527 1527 1527 1527 1528
1425 1431 1438 1447 1453 1458 1464 1468 1472 1475 1479 1481 1481 1483 1485 1487 1489 1490 1490 1488 1490 1494 1497 1498 1500 1500 1502 1505 1506 1505 1507 1510 1513 1515 1520 1520 1521 1522 1523 1523 1522 1523 1523
1426 1435 1444 1449 1451 1452 1455 1458 1462 1467 1472 1475 1477 1477 1480 1483 1483 1485 1487 1486 1486 1489 1492 1494 1496 1498 1500 1502 1504 1505 1507 1508 1509 1512 1514 1515 1516 1516 1517 1518 1519 1519 1520
1426 1433 1437 1440 1443 1447 1451 1454 1455 1457 1462 1468 1472 1474 1474 1477 1479 1480 1483 1485 1485 1486 1488 1490 1492 1493 1496 1499 1502 1503 1504 1506 1508 1509 1510 1510 1511 1512 1513 1514 1515 1515 1516
1425 1430 1438 1445 1447 1441 1439 1443 1453 1456 1456 1463 1468 1471 1470 1471 1474 1475 1476 1480 1483 1483 1483 1487 1489 1490 1491 1494 1497 1500 1501 1503 1505 1505 1507 1506 1506 1507 1508 1510 1510 1511 1512
1428 1429 1429 1429 1434 1423 1415 1442 1443 1455 1458 1459 1461 1469 1469 1467 1470 1474 1474 1473 1478 1482 1481 1482 1485 1487 1489 1490 1491 1494 1497 1498 1500 1502 1503 1501 1502 1503 1503 1504 1505 1506 1507
1428 1417 1423 1426 1422 1401 1396 1446 1444 1457 1458 1456 1460 1463 1469 1467 1467 1471 1473 1471 1472 1476 1480 1479 1482 1485 1485 1486 1488 1490 1491 1492 1494 1496 1497 1497 1498 1497 1498 1498 1499 1501 1502
1407 1415 1418 1426 1415 1445 1433 1425 1449 1455 1455 1451 1455 1462 1464 1464 1466 1467 1470 1471 1467 1469 1476 1477 1477 1480 1482 1482 1483 1484 1485 1487 1488 1489 1490 1492 1493 1493 1494 1494 1494 1497 1499
1416 1418 1433 1434 1444 1450 1450 1446 1447 1448 1449 1447 1454 1459 1462 1462 1464 1465 1466 1469 1466 1464 1468 1472 1473 1474 1476 1479 1480 1480 1479 1480 1482 1483 1484 1485 1488 1488 1489 1489 1490 1492 1493
1429 1430 1437 1443 1441 1448 1447 1442 1442 1441 1442 1445 1451 1454 1456 1456 1458 1460 1463 1465 1466 1462 1462 1465 1469 1469 1470 1472 1474 1476 1476 1478 1478 1477 1478 1479 1480 1482 1484 1485 1485 1487 1490
1439 1439 1434 1435 1441 1440 1438 1434 1432 1432 1436 1441 1449 1451 1451 1452 1452 1456 1459 1459 1462 1462 1461 1460 1464 1464 1464 1466 1467 1470 1470 1472 1473 1474 1474 1473 1473 1475 1476 1478 1480 1482 1483
1445 1446 1443 1441 1440 1436 1433 1431 1432 1435 1433 1439 1414 1437 1441 1447 1449 1450 1452 1455 1455 1456 1455 1454 1456 1457 1458 1459 1460 1462 1464 1466 1467 1468 1469 1469 1469 1468 1468 1470 1472 1475 1478
1449 1445 1445 1444 1441 1438 1438 1438 1435 1430 1428 1432 1432 1443 1447 1448 1446 1444 1445 1448 1449 1448 1449 1447 1447 1449 1450 1450 1453 1455 1457 1458 1458 1459 1460 1462 1462 1465 1465 1466 1469 1471 1472
1446 1446 1445 1443 1437 1437 1438 1432 1428 1430 1433 1437 1439 1444 1447 1448 1446 1441 1438 1440 1441 1440 1441 1438 1439 1441 1441 1442 1443 1444 1446 1446 1446 1448 1450 1453 1457 1458 1460 1460 1462 1466 1468
1447 1445 1443 1438 1437 1437 1434 1432 1435 1440 1441 1439 1438 1441 1444 1445 1439 1436 1434 1434 1432 1431 1433 1430 1433 1433 1434 1435 1435 1434 1433 1432 1434 1435 1439 1445 1449 1451 1453 1456 1458 1458 1461
1450 1448 1446 1445 1444 1443 1442 1443 1445 1444 1440 1439 1441 1443 1442 1437 1436 1434 1434 1428 1424 1423 1424 1423 1426 1426 1426 1427 1427 1426 1424 1423 1423 1426 1425 1432 1441 1445 1448 1450 1453 1453 1453
1447 1447 1445 1446 1447 1448 1445 1444 1444 1443 1442 1442 1443 1442 1439 1438 1434 1429 1427 1424 1420 1419 1420 1420 1420 1419 1420 1422 1422 1421 1419 1418 1418 1421 1423 1429 1434 1438 1441 1443 1443 1444 1443
1446 1446 1444 1444 1444 1443 1440 1438 1438 1439 1435 1436 1436 1435 1436 1434 1431 1428 1424 1420 1420 1421 1419 1418 1417 1415 1416 1416 1418 1418 1417 1416 1417 1421 1423 1426 1430 1433 1435 1435 1436 1436 1438
1443 1443 1442 1442 1440 1437 1435 1437 1436 1437 1435 1434 1432 1432 1434 1432 1430 1428 1425 1421 1420 1418 1414 1412 1412 1412 1413 1413 1414 1415 1416 1415 1416 1418 1419 1422 1423 1426 1429 1431 1431 1433 1433
1444 1443 1441 1440 1438 1437 1436 1435 1436 1435 1433 1432 1433 1433 1435 1435 1432 1428 1425 1423 1420 1415 1410 1408 1408 1408 1409 1410 1412 1413 1413 1414 1413 1414 1414 1415 1419 1421 1423 1425 1428 1429 1432
1441 1440 1439 1440 1439 1436 1436 1435 1435 1434 1432 1430 1430 1434 1434 1431 1427 1425 1424 1420 1417 1415 1413 1412 1410 1408 1408 1407 1409 1410 1408 1409 1409 1410 1413 1412 1413 1417 1422 1424 1427 1431 1431
1439 1440 1439 1438 1436 1435 1435 1434 1432 1432 1432 1430 1430 1431 1429 1427 1425 1425 1423 1420 1419 1419 1417 1417 1416 1414 1413 1411 1411 1411 1412 1412 1413 1414 1415 1415 1419 1420 1422 1427 1429 1431 1431
1439 1440 1438 1436 1435 1434 1433 1432 1431 1430 1430 1430 1430 1430 1428 1427 1425 1424 1423 1423 1422 1422 1423 1422 1421 1418 1417 1416 1417 1419 1418 1418 1418 1420 1420 1420 1423 1426 1426 1430 1431 1433 1435
1439 1438 1437 1436 1435 1434 1432 1430 1429 1428 1427 1428 1429 1428 1428 1427 1427 1426 1426 1426 1426 1425 1426 1427 1424 1422 1421 1419 1418 1420 1421 1422 1422 1423 1423 1423 1427 1424 1431 1432 1434 1433 1436
1436 1436 1435 1435 1436 1435 1434 1432 1429 1428 1428 1427 1427 1429 1427 1428 1428 1428 1428 1427 1427 1426 1427 1426 1423 1422 1422 1421 1421 1422 1423 1421 1420 1424 1425 1428 1428 1431 1434 1433 1435 1434 1438
1436 1436 1436 1435 1433 1432 1432 1431 1430 1428 1426 1425 1425 1425 1425 1427 1427 1428 1428 1426 1427 1426 1425 1423 1423 1421 1419 1423 1422 1422 1422 1423 1424 1425 1426 1430 1431 1431 1432 1434 1434 1437 1439